Regional Weather Roundup
Issued by NWS

Home | Current Version | Previous Version | Graphics & Text | Print | Product List | Glossary On
Versions: 1 2 3 4 5 6 7 8 9 10 11 12 13 14 15 16 17 18 19 20 21 22 23 24 25 26 27 28 29 30 31 32 33 34 35 36 37 38 39 40 41 42 43 44 45 46 47 48 49 50
000
ASUS43 KDMX 301207
RWRIA

WEATHER ROUNDUP FOR IOWA
NATIONAL WEATHER SERVICE DES MOINES IA
600 AM CST FRI JAN 30 2015

NOTE: "FAIR" INDICATES FEW OR NO CLOUDS BELOW 12,000 FEET WITH NO
SIGNIFICANT WEATHER AND/OR OBSTRUCTIONS TO VISIBILITY.

* - THESE STATIONS ARE NOT NWS STATIONS...THUS NOT UNDER NWS
QUALITY CONTROL.  THEY ALSO DO NOT REPORT WEATHER SUCH
AS PRECIPITATION OR FOG.

IAZ001>003-012>014-020>022-031>034-043>046-301300-
   NORTHWEST IOWA

CITY           SKY/WX    TMP DP  RH WIND       PRES   REMARKS
CARROLL *      CLEAR     14  10  85 CALM      30.53S
CHEROKEE *     CLEAR     16  14  95 E3        30.51F
DENISON *      CLEAR     16  14  93 CALM      30.50F
LE MARS *      PTCLDY    18  16  93 SE6       30.50F WCI   9
ORANGE CITY *  CLEAR     19  16  86 CALM      30.48F
SHELDON *      PTCLDY    16  14  93 SE3       30.47F
SIOUX CITY     CLEAR     17  14  88 SE6       30.51F WCI   9
6HR MIN TEMP:  16; 6HR MAX TEMP:  24;

SPENCER        CLEAR     14  10  84 E5        30.49F WCI   6
6HR MIN TEMP:  14; 6HR MAX TEMP:  19;

STORM LAKE *   CLEAR     12  10  92 E5        30.50F WCI   4
$$

IAZ055>058-069>071-079>083-090>094-301300-
   SOUTHWEST IOWA

CITY           SKY/WX    TMP DP  RH WIND       PRES   REMARKS
ATLANTIC *     CLEAR     14  12  92 CALM      30.53S
AUDUBON *      CLEAR     12   9  85 CALM      30.51F
CLARINDA *     CLEAR     14  14 100 NE3       30.55S
COUNCIL BLFS * CLEAR     19  18  93 E6        30.50F WCI  11
CRESTON *      CLEAR     16  14  93 NE6       30.52F WCI   7
HARLAN  *      CLEAR     14  14 100 CALM      30.55F
LAMONI         CLEAR     17  14  88 N6        30.52S WCI   9
6HR MIN TEMP:  17; 6HR MAX TEMP:  25;

RED OAK *      CLEAR     14  12  92 N3        30.53F
SHENANDOAH *   CLEAR     16  16 100 CALM      30.55S
$$

IAZ047>049-059>061-072>074-084-301300-
   CENTRAL IOWA

CITY           SKY/WX    TMP DP  RH WIND       PRES   REMARKS
AMES           CLEAR     15  11  83 N5        30.54R WCI   8
6HR MIN TEMP:  15; 6HR MAX TEMP:  22;

ANKENY *       CLEAR     16  12  86 N5        30.55R WCI   9
CHARITON *     CLEAR     18  14  86 N5        30.54R WCI  11
DES MOINES     CLEAR     19  12  74 CALM      30.55S
6HR MIN TEMP:  18; 6HR MAX TEMP:  25;

GRINNELL*      CLEAR     16  12  86 NW3       30.53S
KNOXVILLE *    CLEAR     18  12  79 N3        30.52F
MARSHALLTOWN   CLEAR     16  12  84 N8        30.52F WCI   5
6HR MIN TEMP:  16; 6HR MAX TEMP:  22;

PELLA *        CLEAR     16  14  91 NW3       30.56R
PERRY *          N/A     14  12  92 W5        30.54S WCI   6
$$

IAZ004>006-015-016-023>025-035-036-301300-
   NORTH CENTRAL IOWA

CITY           SKY/WX    TMP DP  RH WIND       PRES   REMARKS
ALGONA *       CLEAR     14  10  85 CALM      30.52S
CLARION *      CLEAR     14  12  92 NE5       30.51F WCI   6
ESTHERVILLE    CLEAR     12   9  87 SW3       30.50F
6HR MIN TEMP:  11; 6HR MAX TEMP:  16;

FORT DODGE *   CLEAR     14   9  79 CALM      30.53R
MASON CITY     CLEAR     10   7  87 CALM      30.52S
6HR MIN TEMP:  10; 6HR MAX TEMP:  17;

FOREST CITY *  CLEAR     12   9  85 CALM      30.50F
IOWA FALLS *     N/A     16  12  86 N3        30.52S
$$

IAZ007>011-017>019-026>030-037>042-050>054-066-301300-
   NORTHEAST IOWA

CITY           SKY/WX    TMP DP  RH WIND       PRES   REMARKS
CEDAR RAPIDS     N/A     16  11  80 N10       30.51S WCI   4
6HR MIN TEMP:  15; 6HR MAX TEMP:  23;

CHARLES CITY * CLEAR     12   7  79 NE5       30.52S WCI   4
CLINTON *      CLEAR     14   9  79 N8        30.53R WCI   3
DECORAH *      CLEAR     10   5  79 NW5       30.50S WCI   2
DUBUQUE        CLEAR     14   8  77 N10       30.49R WCI   1
6HR MIN TEMP:  14; 6HR MAX TEMP:  24;

MONTICELLO *   CLEAR     16  12  86 N8        30.51S WCI   5
OELWEIN *      CLEAR     12   7  79 N6        30.52S WCI   3
WATERLOO       CLEAR     12   7  80 N7        30.53S WCI   1
6HR MIN TEMP:  12; 6HR MAX TEMP:  22;

$$

IAZ064-065-067-068-078-301300-
   EAST CENTRAL IOWA

CITY           SKY/WX    TMP DP  RH WIND       PRES   REMARKS
DAVENPORT      CLEAR     16   9  74 N8        30.51S WCI   5
6HR MIN TEMP:  16; 6HR MAX TEMP:  24;

IOWA CITY      CLEAR     19  11  70 NW10      30.55R WCI   7
6HR MIN TEMP:  19; 6HR MAX TEMP:  26;

MT. PLEASANT * CLEAR     20  16  84 NW3       30.54R
MUSCATINE *    CLEAR     21  14  73 N7        30.55R WCI  13
QUAD CITIES    CLEAR     20  11  68 N6        30.52R WCI  12
6HR MIN TEMP:  20; 6HR MAX TEMP:  27;

$$

IAZ062-063-075>077-085>089-095>099-301300-
   SOUTHEAST IOWA

CITY           SKY/WX    TMP DP  RH WIND       PRES   REMARKS
BURLINGTON     CLEAR     22  16  78 NW8       30.52R WCI  12
6HR MIN TEMP:  22; 6HR MAX TEMP:  28;

FAIRFIELD *    CLEAR     19  14  79 N8        30.54R WCI   9
FORT MADISON * CLEAR     21  18  86 N7        30.53R WCI  13
KEOKUK *       CLEAR     23  18  80 N6        30.53R WCI  16
OSKALOOSA *      N/A     17  14  88 N6        30.53F WCI   8
CENTERVILLE *  CLOUDY    21  18  86 N7        30.54R WCI  13
OTTUMWA        CLEAR     17  13  84 N9        30.53S WCI   6
6HR MIN TEMP:  16; 6HR MAX TEMP:  25;

WASHINGTON *   PTCLDY    21  18  86 N8        30.53S WCI  12
$$

ABBREVIATIONS USED IN REMARKS
   TC - TEMPERATURES IN CELSIUS
  WCI - WIND CHILL INDEX
   HX - HEAT INDEX
  VSB - VISIBILITY
$$



USA.gov is the U.S. government's official web portal to all federal, state and local government web resources and services.